GW1685 Weather Reports


time (UTC)temp
C
wind
direction
speed
KPH
gust
KPH
rain 1hr
cm
rain 24hr
cm
rain mn
cm
humidity
%
barometer
mb
20260906173921 26 108 0.0 0.0 0.00 0.00 0.00 75 1020.8
20260906173416 26 125 1.6 3.2 0.00 0.00 0.00 76 1020.9
20260906172915 26 107 0.0 3.2 0.00 0.00 0.00 76 1021.0
20260906172412 26 143 6.4 9.7 0.00 0.00 0.00 76 1020.9
20260906171907 26 144 6.4 8.0 0.00 0.00 0.00 77 1021.0
20260906171401 26 106 6.4 9.7 0.00 0.00 0.00 76 1021.0
20260906170858 26 180 9.7 12.9 0.00 0.00 0.00 75 1021.0
20260906170354 26 117 3.2 4.8 0.00 0.00 0.00 77 1021.1
20260906165850 26 159 4.8 8.0 0.00 0.00 0.00 75 1021.2
20260906165349 25 118 3.2 4.8 0.00 0.00 0.00 77 1021.2
20260906164844 25 96 8.0 9.7 0.00 0.00 0.00 77 1021.3
20260906164343 26 84 4.8 8.0 0.00 0.00 0.00 77 1021.3
20260906163839 25 182 3.2 8.0 0.00 0.00 0.00 78 1021.1
20260906163335 25 67 1.6 4.8 0.00 0.00 0.00 79 1021.3
20260906162833 25 112 3.2 4.8 0.00 0.00 0.00 78 1021.5
20260906162332 25 131 1.6 3.2 0.00 0.00 0.00 79 1021.5
20260906161827 25 110 3.2 4.8 0.00 0.00 0.00 80 1021.7
20260906161326 24 86 0.0 3.2 0.00 0.00 0.00 82 1021.8
20260906160825 24 82 6.4 12.9 0.00 0.00 0.00 82 1022.0
20260906160319 25 139 1.6 3.2 0.00 0.00 0.00 81 1021.9
20260906155817 25 50 4.8 4.8 0.00 0.00 0.00 82 1022.0
20260906155312 25 120 3.2 3.2 0.00 0.00 0.00 82 1021.9
20260906154808 24 89 0.0 0.0 0.00 0.00 0.00 83 1022.0
20260906154302 23 114 4.8 8.0 0.00 0.00 0.00 84 1021.9
20260906153800 23 181 4.8 4.8 0.00 0.00 0.00 85 1021.9
20260906153255 23 109 1.6 3.2 0.00 0.00 0.00 85 1021.8
20260906152750 24 122 3.2 4.8 0.00 0.00 0.00 84 1021.7
20260906152245 24 172 8.0 9.7 0.00 0.00 0.00 85 1021.8
20260906151744 23 97 3.2 4.8 0.00 0.00 0.00 85 1021.7
20260906151240 23 118 3.2 4.8 0.00 0.00 0.00 85 1022.1
20260906150736 23 84 0.0 0.0 0.00 0.00 0.00 86 1022.0
20260906150231 23 104 1.6 3.2 0.00 0.00 0.00 87 1021.7
20260906145730 23 108 1.6 4.8 0.00 0.00 0.00 89 1021.9
20260906145229 22 129 0.0 3.2 0.00 0.00 0.00 91 1021.7
20260906144724 22 91 0.0 3.2 0.00 0.00 0.00 93 1021.3
20260906144219 22 130 0.0 4.8 0.00 0.00 0.00 94 1021.5
20260906143718 22 84 3.2 4.8 0.00 0.00 0.00 94 1021.7
20260906143216 22 99 0.0 0.0 0.00 0.00 0.00 94 1021.8
20260906142715 22 120 0.0 3.2 0.00 0.00 0.00 94 1021.1
20260906142211 22 152 3.2 4.8 0.00 0.00 0.00 94 1021.5
20260906141709 22 67 1.6 3.2 0.00 0.00 0.00 95 1021.3
20260906141204 21 99 1.6 3.2 0.00 0.00 0.00 97 1021.3
20260906140703 21 45 4.8 8.0 0.00 0.00 0.00 99 1021.4
20260906140159 20 101 1.6 3.2 0.00 0.00 0.00 99 1021.5
20260906135655 20 174 3.2 8.0 0.00 0.00 0.00 99 1021.4
20260906135151 19 101 0.0 0.0 0.00 0.00 0.00 99 1021.5
20260906134647 19 76 3.2 4.8 0.00 0.00 0.00 99 1021.7
20260906134142 19 84 0.0 0.0 0.00 0.00 0.00 99 1021.5
20260906133637 19 96 0.0 3.2 0.00 0.00 0.00 99 1021.4
20260906133132 19 93 0.0 0.0 0.00 0.00 0.00 99 1021.4
20260906132627 18 92 0.0 0.0 0.00 0.00 0.00 99 1021.5
20260906132123 18 109 0.0 0.0 0.00 0.00 0.00 99 1021.7
20260906131618 18 100 0.0 0.0 0.00 0.00 0.00 99 1021.4
20260906131113 18 99 0.0 0.0 0.00 0.00 0.00 99 1021.5
20260906130608 17 93 0.0 0.0 0.00 0.00 0.00 99 1021.3
20260906130103 17 92 0.0 0.0 0.00 0.00 0.00 99 1021.4
20260906125555 17 102 0.0 0.0 0.00 0.00 0.00 99 1021.4
20260906125054 17 99 0.0 0.0 0.00 0.00 0.00 99 1021.5
20260906124550 17 90 0.0 0.0 0.00 0.00 0.00 99 1021.4
20260906124045 17 90 0.0 0.0 0.00 0.00 0.00 99 1021.4
20260906123544 17 96 0.0 0.0 0.00 0.00 0.00 99 1021.7
20260906123039 17 100 0.0 0.0 0.00 0.00 0.00 99 1021.5
20260906122533 16 97 0.0 0.0 0.00 0.00 0.00 99 1021.3
20260906122030 16 98 0.0 0.0 0.00 0.00 0.00 99 1021.3
20260906121525 16 97 0.0 0.0 0.00 0.00 0.00 99 1021.4
20260906121021 16 102 0.0 0.0 0.00 0.00 0.00 99 1021.3
20260906120516 16 94 0.0 0.0 0.00 0.00 0.00 99 1020.9
20260906120014 16 101 0.0 0.0 0.00 0.00 0.00 99 1021.1
20260906115513 16 97 0.0 0.0 0.00 0.00 0.00 99 1021.1
20260906115008 16 96 0.0 0.0 0.00 0.00 0.00 99 1021.0
20260906114502 16 97 0.0 0.0 0.00 0.00 0.00 99 1021.0
20260906113958 16 96 0.0 0.0 0.00 0.00 0.00 99 1021.1
20260906113456 16 98 0.0 0.0 0.00 0.00 0.00 99 1021.1
20260906112952 16 97 0.0 0.0 0.00 0.00 0.00 99 1020.9
20260906112447 16 99 0.0 0.0 0.00 0.00 0.00 99 1020.8
20260906111943 17 93 0.0 0.0 0.00 0.00 0.00 99 1021.1
20260906111442 17 94 0.0 0.0 0.00 0.00 0.00 99 1021.2
20260906110937 16 91 0.0 0.0 0.00 0.00 0.00 99 1021.1
20260906110433 17 90 0.0 0.0 0.00 0.00 0.00 99 1020.9
20260906105932 16 92 0.0 0.0 0.00 0.00 0.00 99 1020.7
20260906105428 16 93 0.0 0.0 0.00 0.00 0.00 99 1020.6
20260906104924 16 93 0.0 0.0 0.00 0.00 0.00 99 1020.5
20260906104422 16 93 0.0 0.0 0.00 0.00 0.00 99 1020.8
20260906103922 16 92 0.0 0.0 0.00 0.00 0.00 99 1020.5
20260906103420 16 96 0.0 0.0 0.00 0.00 0.00 99 1020.5
20260906102916 16 96 0.0 0.0 0.00 0.00 0.00 99 1020.5
20260906102415 16 96 0.0 0.0 0.00 0.00 0.00 99 1020.6
20260906101910 16 95 0.0 0.0 0.00 0.00 0.00 99 1020.2
20260906101405 16 95 0.0 0.0 0.00 0.00 0.00 99 1020.3
20260906100901 16 100 0.0 0.0 0.00 0.00 0.00 99 1020.2
20260906100400 17 100 0.0 0.0 0.00 0.00 0.00 99 1020.2
20260906095854 16 99 0.0 0.0 0.00 0.00 0.00 99 1020.0
20260906095350 16 100 0.0 0.0 0.00 0.00 0.00 99 1020.1
20260906094844 17 99 0.0 0.0 0.00 0.00 0.00 99 1019.9
20260906094339 17 99 0.0 0.0 0.00 0.00 0.00 99 1020.0
20260906093835 17 99 0.0 0.0 0.00 0.00 0.00 99 1019.9
20260906093331 17 99 0.0 0.0 0.00 0.00 0.00 99 1020.0
20260906092825 17 99 0.0 0.0 0.00 0.00 0.00 99 1019.9
20260906092320 17 96 0.0 0.0 0.00 0.00 0.00 99 1019.9
20260906091815 17 99 0.0 0.0 0.00 0.00 0.00 99 1020.2
20260906091312 17 97 0.0 0.0 0.00 0.00 0.00 99 1020.1
20260906090808 17 98 0.0 0.0 0.00 0.00 0.00 99 1020.2
20260906090307 17 99 0.0 0.0 0.00 0.00 0.00 99 1020.2
20260906085806 17 99 0.0 0.0 0.00 0.00 0.00 99 1020.3
20260906085259 17 98 0.0 0.0 0.00 0.00 0.00 99 1020.0
20260906084755 17 98 0.0 0.0 0.00 0.00 0.00 99 1020.3
20260906084254 17 100 0.0 0.0 0.00 0.00 0.00 99 1020.0
20260906083749 17 97 0.0 0.0 0.00 0.00 0.00 99 1020.1
20260906083245 17 96 0.0 0.0 0.00 0.00 0.00 99 1020.1
20260906082739 17 96 0.0 0.0 0.00 0.00 0.00 99 1020.2
20260906082234 17 98 0.0 0.0 0.00 0.00 0.00 99 1020.2
20260906081731 17 100 0.0 0.0 0.00 0.00 0.00 99 1020.1
20260906081225 17 92 0.0 0.0 0.00 0.00 0.00 99 1020.0
20260906080722 17 98 0.0 0.0 0.00 0.00 0.00 99 1020.1
20260906080218 17 82 0.0 0.0 0.00 0.00 0.00 99 1020.0
20260906075718 17 92 0.0 0.0 0.00 0.00 0.00 99 1020.0
20260906075212 17 103 0.0 0.0 0.00 0.00 0.00 99 1019.6
20260906074708 17 104 0.0 0.0 0.00 0.00 0.00 99 1019.7
20260906074207 17 102 0.0 0.0 0.00 0.00 0.00 99 1019.9
20260906073702 17 100 0.0 0.0 0.00 0.00 0.00 99 1019.9
20260906073157 17 100 0.0 0.0 0.00 0.00 0.00 99 1020.0
20260906072652 17 100 0.0 0.0 0.00 0.00 0.00 99 1020.1
20260906072148 17 100 0.0 0.0 0.00 0.00 0.00 99 1020.1
20260906071644 17 100 0.0 0.0 0.00 0.00 0.00 99 1020.0
20260906071143 17 96 0.0 0.0 0.00 0.00 0.00 99 1020.4
20260906070640 17 95 0.0 0.0 0.00 0.00 0.00 99 1020.1
20260906070136 17 100 0.0 0.0 0.00 0.00 0.00 99 1020.4
20260906065635 17 82 0.0 0.0 0.00 0.00 0.00 99 1020.3
20260906065131 17 98 0.0 0.0 0.00 0.00 0.00 99 1020.5
20260906064626 17 97 0.0 0.0 0.00 0.00 0.00 99 1020.2
20260906064121 18 96 0.0 0.0 0.00 0.00 0.00 99 1020.5
20260906063616 18 98 0.0 0.0 0.00 0.00 0.00 99 1020.6
20260906063112 18 96 0.0 0.0 0.00 0.00 0.00 99 1020.6
20260906062608 18 95 0.0 0.0 0.00 0.00 0.00 99 1020.6
20260906062106 18 96 0.0 0.0 0.00 0.00 0.00 99 1020.4
20260906061603 18 91 0.0 0.0 0.00 0.00 0.00 99 1020.4
20260906061102 18 95 0.0 0.0 0.00 0.00 0.00 99 1020.3
20260906060559 18 105 0.0 0.0 0.00 0.00 0.00 99 1020.2
20260906060056 18 92 0.0 0.0 0.00 0.00 0.00 99 1020.3
20260906055551 18 100 0.0 0.0 0.00 0.00 0.00 99 1020.4
20260906055046 18 92 0.0 0.0 0.00 0.00 0.00 99 1020.3
20260906054541 19 101 0.0 0.0 0.00 0.00 0.00 99 1020.2
20260906054036 19 92 0.0 0.0 0.00 0.00 0.00 99 1020.4
20260906053533 19 97 0.0 0.0 0.00 0.00 0.00 99 1020.4
20260906053028 19 95 0.0 0.0 0.00 0.00 0.00 99 1020.2
20260906052524 19 84 0.0 0.0 0.00 0.00 0.00 99 1020.4
20260906052021 19 86 0.0 0.0 0.00 0.00 0.00 99 1020.3
20260906051516 19 96 0.0 0.0 0.00 0.00 0.00 99 1020.3
20260906051012 19 95 0.0 0.0 0.00 0.00 0.00 99 1020.5
20260906050512 19 98 0.0 0.0 0.00 0.00 0.00 99 1020.2
20260906050006 19 100 0.0 0.0 0.00 0.00 0.00 99 1020.3
20260906045505 19 97 0.0 0.0 0.00 0.00 0.00 99 1020.4
20260906045000 19 99 0.0 0.0 0.00 0.00 0.00 99 1020.3
20260906044455 19 102 0.0 0.0 0.00 0.00 0.00 99 1020.2
20260906043951 19 100 0.0 0.0 0.00 0.00 0.00 99 1020.4
20260906043447 19 100 0.0 0.0 0.00 0.00 0.00 99 1020.3
20260906042943 19 100 0.0 0.0 0.00 0.00 0.00 99 1020.4
20260906042442 19 100 0.0 0.0 0.00 0.00 0.00 99 1020.5
20260906041936 19 99 0.0 0.0 0.00 0.00 0.00 99 1020.2
20260906041433 20 99 0.0 0.0 0.00 0.00 0.00 99 1020.1
20260906040932 20 99 0.0 0.0 0.00 0.00 0.00 99 1020.3
20260906040427 20 100 0.0 0.0 0.00 0.00 0.00 99 1020.3
20260906035922 20 93 0.0 0.0 0.00 0.00 0.00 98 1020.3
20260906035418 20 92 0.0 0.0 0.00 0.00 0.00 98 1020.3
20260906034913 20 108 0.0 0.0 0.00 0.00 0.00 98 1020.1
20260906034414 20 92 0.0 0.0 0.00 0.00 0.00 98 1020.4
20260906033909 20 92 0.0 0.0 0.00 0.00 0.00 97 1020.2
20260906033409 20 93 0.0 0.0 0.00 0.00 0.00 97 1020.2
20260906032904 20 92 0.0 0.0 0.00 0.00 0.00 97 1020.4
20260906032401 20 93 0.0 0.0 0.00 0.00 0.00 97 1020.2
20260906031855 20 95 0.0 0.0 0.00 0.00 0.00 97 1020.5
20260906031350 20 96 0.0 0.0 0.00 0.00 0.00 96 1020.2
20260906030846 20 96 0.0 0.0 0.00 0.00 0.00 96 1020.3
20260906030340 20 96 0.0 0.0 0.00 0.00 0.00 95 1020.2
20260906025835 21 96 0.0 0.0 0.00 0.00 0.00 95 1020.4
20260906025329 21 96 0.0 0.0 0.00 0.00 0.00 95 1020.5
20260906024828 21 97 0.0 0.0 0.00 0.00 0.00 94 1020.5
20260906024327 21 97 0.0 0.0 0.00 0.00 0.00 94 1020.2
20260906023823 21 97 0.0 0.0 0.00 0.00 0.00 94 1020.3
20260906023318 21 101 0.0 0.0 0.00 0.00 0.00 93 1020.3
20260906022814 21 119 0.0 0.0 0.00 0.00 0.00 93 1020.4
20260906022309 21 102 0.0 0.0 0.00 0.00 0.00 93 1020.4
20260906021805 21 91 0.0 0.0 0.00 0.00 0.00 93 1020.1
20260906021304 22 97 0.0 0.0 0.00 0.00 0.00 92 1020.0
20260906020759 22 88 0.0 0.0 0.00 0.00 0.00 92 1020.0
20260906020258 22 96 0.0 0.0 0.00 0.00 0.00 91 1020.1
20260906015758 22 144 1.6 3.2 0.00 0.00 0.00 91 1019.7
20260906015257 22 98 0.0 0.0 0.00 0.00 0.00 91 1019.8
20260906014752 22 93 0.0 0.0 0.00 0.00 0.00 91 1019.5
20260906014247 22 70 1.6 3.2 0.00 0.00 0.00 91 1019.4
20260906013743 22 91 0.0 0.0 0.00 0.00 0.00 91 1019.2
20260906013243 22 102 0.0 0.0 0.00 0.00 0.00 91 1018.7
20260906012739 22 106 0.0 0.0 0.00 0.00 0.00 90 1018.8
20260906012233 22 98 0.0 0.0 0.00 0.00 0.00 89 1019.0
20260906011729 22 102 0.0 0.0 0.00 0.00 0.00 89 1018.6
20260906011223 22 85 0.0 0.0 0.00 0.00 0.00 89 1018.2
20260906010718 22 66 0.0 0.0 0.00 0.00 0.00 89 1017.9
20260906010214 22 124 0.0 0.0 0.00 0.00 0.00 89 1017.6
20260906005709 23 110 0.0 0.0 0.00 0.00 0.00 89 1017.5
20260906005209 23 76 0.0 0.0 0.00 0.00 0.00 88 1017.6
20260906004708 23 90 0.0 0.0 0.00 0.00 0.00 87 1017.6
20260906004203 23 96 0.0 0.0 0.00 0.00 0.00 86 1017.8
20260906003658 24 97 0.0 0.0 0.00 0.00 0.00 84 1017.3
20260906003153 25 96 0.0 0.0 0.00 0.00 0.00 82 1017.5
20260906002648 25 99 0.0 0.0 0.00 0.00 0.00 81 1017.3
20260906002143 25 100 0.0 0.0 0.00 0.00 0.00 81 1017.2
20260906001638 25 99 0.0 0.0 0.00 0.00 0.00 80 1017.3
20260906001138 25 96 0.0 0.0 0.00 0.00 0.00 79 1017.2
20260906000633 26 100 0.0 0.0 0.00 0.00 0.00 78 1017.4
20260906000129 26 91 0.0 0.0 0.00 0.00 0.00 77 1017.3
20260905235628 26 103 0.0 0.0 0.00 0.00 0.00 76 1017.3
20260905235123 26 108 0.0 0.0 0.00 0.00 0.00 76 1017.2
20260905234618 26 80 0.0 0.0 0.00 0.00 0.00 76 1017.1
20260905234114 26 87 1.6 4.8 0.00 0.00 0.00 76 1017.1
20260905233608 26 84 0.0 0.0 0.00 0.00 0.00 76 1017.2
20260905233102 26 102 0.0 0.0 0.00 0.00 0.00 77 1017.5
20260905232558 26 105 0.0 0.0 0.00 0.00 0.00 77 1017.4
20260905232054 26 103 3.2 4.8 0.00 0.00 0.00 76 1017.8
20260905231548 26 116 1.6 3.2 0.00 0.00 0.00 76 1017.6
20260905231045 26 75 3.2 4.8 0.00 0.00 0.00 75 1017.8
20260905230544 26 78 0.0 3.2 0.00 0.00 0.00 75 1018.0
20260905230043 27 111 0.0 0.0 0.00 0.00 0.00 75 1018.0
20260905225537 27 77 1.6 3.2 0.00 0.00 0.00 75 1018.0
20260905225032 27 103 0.0 0.0 0.00 0.00 0.00 74 1018.1
20260905224527 27 74 0.0 3.2 0.00 0.00 0.00 75 1018.0
20260905224026 27 117 1.6 3.2 0.00 0.00 0.00 75 1018.1
20260905223519 27 103 3.2 4.8 0.00 0.00 0.00 75 1018.0
20260905223014 27 61 0.0 3.2 0.00 0.00 0.00 74 1018.3
20260905222514 27 97 1.6 4.8 0.00 0.00 0.00 75 1018.2
20260905222009 27 135 0.0 0.0 0.00 0.00 0.00 78 1018.1
20260905221506 27 104 0.0 3.2 0.00 0.00 0.00 78 1018.1
20260905221001 27 92 0.0 3.2 0.00 0.00 0.00 77 1018.2
20260905220457 27 99 0.0 3.2 0.00 0.00 0.00 77 1018.3
20260905215956 27 40 3.2 4.8 0.00 0.00 0.00 76 1018.2
20260905215452 27 80 1.6 3.2 0.00 0.00 0.00 76 1018.2
20260905214948 27 117 1.6 3.2 0.00 0.00 0.00 78 1018.4
20260905214443 26 78 1.6 3.2 0.00 0.00 0.00 78 1018.4
20260905213938 26 146 3.2 4.8 0.00 0.00 0.00 78 1018.3
20260905213434 26 67 4.8 4.8 0.00 0.00 0.00 78 1018.4
20260905212929 27 57 1.6 3.2 0.00 0.00 0.00 78 1018.5
20260905212424 26 104 1.6 3.2 0.00 0.00 0.00 79 1018.6
20260905211923 26 42 3.2 4.8 0.00 0.00 0.00 78 1018.6
20260905211419 26 46 4.8 4.8 0.00 0.00 0.00 78 1018.7
20260905210915 26 71 1.6 3.2 0.00 0.00 0.00 79 1018.7
20260905210415 26 132 1.6 3.2 0.00 0.00 0.00 79 1018.8
20260905205914 26 79 1.6 3.2 0.00 0.00 0.00 79 1019.0
20260905205409 26 33 4.8 8.0 0.00 0.00 0.00 78 1019.1
20260905204908 26 204 0.0 0.0 0.00 0.00 0.00 78 1019.2
20260905204404 27 62 1.6 3.2 0.00 0.00 0.00 76 1019.4
20260905203903 26 114 1.6 3.2 0.00 0.00 0.00 78 1019.3
20260905203359 26 80 4.8 8.0 0.00 0.00 0.00 77 1019.3
20260905202854 26 114 0.0 3.2 0.00 0.00 0.00 79 1019.5
20260905202349 26 38 8.0 9.7 0.00 0.00 0.00 77 1019.5
20260905201845 26 112 0.0 0.0 0.00 0.00 0.00 80 1019.5
20260905201340 26 89 1.6 3.2 0.00 0.00 0.00 80 1019.7
20260905200840 26 124 3.2 4.8 0.00 0.00 0.00 76 1019.6
20260905200336 26 128 0.0 0.0 0.00 0.00 0.00 78 1019.7
20260905195834 26 127 1.6 3.2 0.00 0.00 0.00 77 1019.9
20260905195329 26 110 3.2 4.8 0.00 0.00 0.00 80 1020.0
20260905194825 25 105 0.0 0.0 0.00 0.00 0.00 82 1020.0
20260905194324 26 109 0.0 0.0 0.00 0.00 0.00 81 1019.9
20260905193824 26 99 3.2 4.8 0.00 0.00 0.00 78 1019.8
20260905193319 25 103 1.6 3.2 0.00 0.00 0.00 80 1019.8
20260905192814 25 328 3.2 4.8 0.00 0.00 0.00 80 1019.7
20260905192310 25 4 1.6 3.2 0.00 0.00 0.00 82 1020.0
20260905191810 25 81 0.0 3.2 0.00 0.00 0.00 82 1020.2
20260905191308 25 3 8.0 8.0 0.00 0.00 0.00 80 1020.3
20260905190807 25 96 0.0 3.2 0.00 0.00 0.00 80 1020.3
20260905190301 25 111 0.0 0.0 0.00 0.00 0.00 83 1020.2
20260905185800 25 87 1.6 3.2 0.00 0.00 0.00 80 1020.2
20260905185254 25 82 1.6 4.8 0.00 0.00 0.00 82 1019.7
20260905184748 24 84 1.6 4.8 0.00 0.00 0.00 85 1020.0
20260905184248 24 85 1.6 4.8 0.00 0.00 0.00 84 1019.9
20260905183747 25 115 4.8 4.8 0.00 0.00 0.00 82 1020.1
20260905183242 25 129 4.8 4.8 0.00 0.00 0.00 83 1020.2
20260905182736 25 107 0.0 3.2 0.00 0.00 0.00 83 1020.0
20260905182236 23 71 3.2 4.8 0.00 0.00 0.00 86 1019.8
20260905181732 24 35 4.8 4.8 0.00 0.00 0.00 86 1020.2
20260905181230 23 62 1.6 3.2 0.00 0.00 0.00 87 1020.2
20260905180726 23 114 3.2 3.2 0.00 0.00 0.00 87 1020.2
20260905180220 23 100 0.0 0.0 0.00 0.00 0.00 88 1020.2
20260905175715 23 92 1.6 3.2 0.00 0.00 0.00 88 1020.1
20260905175209 23 96 0.0 0.0 0.00 0.00 0.00 89 1020.3
20260905174705 23 85 0.0 0.0 0.00 0.00 0.00 88 1020.3
20260905174201 23 72 0.0 3.2 0.00 0.00 0.00 89 1020.0